Year,Month,Day,Hour,Minute,Value (Times are PST for windspeed in km/hr)
2010,03,17,00,00,10.40
2010,03,17,00,01,8.70
2010,03,17,00,05,9.90
2010,03,17,00,06,6.90
2010,03,17,00,07,10.90
2010,03,17,00,08,10.20
2010,03,17,00,09,10.20
2010,03,17,00,10,12.20
2010,03,17,00,11,5.80
2010,03,17,00,12,14.10
2010,03,17,00,13,13.20
2010,03,17,00,14,9.40
2010,03,17,00,15,15.70
2010,03,17,00,16,5.00
2010,03,17,00,17,9.20
2010,03,17,00,18,10.80
2010,03,17,00,19,7.80
2010,03,17,00,20,6.00
2010,03,17,00,21,9.10
2010,03,17,00,22,7.60
2010,03,17,00,23,12.90
2010,03,17,00,24,8.40
2010,03,17,00,25,5.80
2010,03,17,00,26,6.30
2010,03,17,00,27,8.00
2010,03,17,00,28,8.60
2010,03,17,00,29,10.30
2010,03,17,00,30,10.60
2010,03,17,00,31,7.70
2010,03,17,00,32,12.30
2010,03,17,00,33,10.10
2010,03,17,00,34,8.90
2010,03,17,00,35,9.90
2010,03,17,00,36,10.00
2010,03,17,00,37,6.50
2010,03,17,00,38,6.20
2010,03,17,00,39,6.60
2010,03,17,00,40,9.00
2010,03,17,00,41,8.40
2010,03,17,00,42,6.60
2010,03,17,00,43,10.20
2010,03,17,00,44,8.60
2010,03,17,00,45,10.20
2010,03,17,00,46,8.40
2010,03,17,00,47,10.80
2010,03,17,00,48,9.50
2010,03,17,00,49,7.20
2010,03,17,00,50,5.60
2010,03,17,00,51,11.40
2010,03,17,00,52,7.50
2010,03,17,00,53,6.40
2010,03,17,00,54,6.00
2010,03,17,00,55,7.10
2010,03,17,00,56,10.40
2010,03,17,00,57,5.60
2010,03,17,00,58,5.60
2010,03,17,00,59,5.20
2010,03,17,01,00,3.20
2010,03,17,01,01,1.50
2010,03,17,01,02,9.80
2010,03,17,01,03,9.10
2010,03,17,01,04,4.40
2010,03,17,01,05,2.50
2010,03,17,01,06,2.70
2010,03,17,01,07,0.80
2010,03,17,01,08,6.50
2010,03,17,01,09,8.30
2010,03,17,01,10,9.30
2010,03,17,01,11,7.60
2010,03,17,01,12,4.30
2010,03,17,01,13,4.80
2010,03,17,01,14,4.70
2010,03,17,01,15,9.70
2010,03,17,01,16,9.50
2010,03,17,01,17,8.70
2010,03,17,01,18,12.20
2010,03,17,01,19,5.10
2010,03,17,01,20,6.70
2010,03,17,01,21,10.50
2010,03,17,01,22,11.40
2010,03,17,01,23,8.10
2010,03,17,01,24,6.90
2010,03,17,01,25,5.10
2010,03,17,01,26,5.80
2010,03,17,01,27,6.50
2010,03,17,01,28,5.10
2010,03,17,01,29,3.60
2010,03,17,01,30,1.90
2010,03,17,01,31,3.00
2010,03,17,01,32,2.30
2010,03,17,01,33,3.60
2010,03,17,01,34,5.90
2010,03,17,01,35,9.50
2010,03,17,01,36,9.70
2010,03,17,01,37,7.50
2010,03,17,01,38,8.60
2010,03,17,01,39,8.30
2010,03,17,01,40,8.30
2010,03,17,01,41,5.40
2010,03,17,01,42,5.90
2010,03,17,01,43,8.10
2010,03,17,01,44,0.40
2010,03,17,01,45,3.90
2010,03,17,01,46,2.70
2010,03,17,01,47,4.60
2010,03,17,01,48,7.80
2010,03,17,01,49,5.70
2010,03,17,01,50,8.40
2010,03,17,01,51,4.30
2010,03,17,01,52,4.70
2010,03,17,01,53,6.50
2010,03,17,01,54,7.10
2010,03,17,01,55,9.00
2010,03,17,01,56,6.80
2010,03,17,01,57,4.50
2010,03,17,01,58,8.70
2010,03,17,01,59,5.10
2010,03,17,02,00,1.10
2010,03,17,02,01,2.40
2010,03,17,02,02,2.10
2010,03,17,02,03,3.20
2010,03,17,02,04,5.00
2010,03,17,02,05,3.60
2010,03,17,02,06,3.30
2010,03,17,02,07,3.60
2010,03,17,02,08,4.60
2010,03,17,02,09,4.70
2010,03,17,02,10,3.10
2010,03,17,02,11,4.80
2010,03,17,02,12,2.60
2010,03,17,02,13,2.20
2010,03,17,02,14,0.50
2010,03,17,02,15,0.70
2010,03,17,02,16,0.60
2010,03,17,02,17,0.10
2010,03,17,02,18,1.30
2010,03,17,02,19,0.40
2010,03,17,02,20,1.60
2010,03,17,02,21,0.00
2010,03,17,02,22,0.30
2010,03,17,02,23,0.30
2010,03,17,02,24,0.00
2010,03,17,02,25,0.00
2010,03,17,02,26,0.50
2010,03,17,02,27,1.10
2010,03,17,02,28,0.30
2010,03,17,02,29,2.70
2010,03,17,02,30,1.50
2010,03,17,02,31,0.20
2010,03,17,02,32,0.50
2010,03,17,02,33,0.30
2010,03,17,02,34,0.00
2010,03,17,02,35,5.30
2010,03,17,02,36,6.70
2010,03,17,02,37,1.80
2010,03,17,02,38,0.10
2010,03,17,02,39,1.80
2010,03,17,02,40,1.40
2010,03,17,02,41,2.10
2010,03,17,02,42,0.50
2010,03,17,02,43,3.10
2010,03,17,02,44,2.40
2010,03,17,02,45,1.60
2010,03,17,02,46,0.00
2010,03,17,02,47,0.00
2010,03,17,02,48,0.00
2010,03,17,02,49,0.00
2010,03,17,02,50,0.00
2010,03,17,02,51,0.10
2010,03,17,02,52,0.90
2010,03,17,02,53,1.40
2010,03,17,02,54,1.60
2010,03,17,02,55,2.50
2010,03,17,02,56,1.40
2010,03,17,02,57,1.00
2010,03,17,02,58,0.10
2010,03,17,02,59,0.50
2010,03,17,03,00,0.10
2010,03,17,03,01,0.40
2010,03,17,03,02,0.00
2010,03,17,03,03,0.50
2010,03,17,03,04,1.30
2010,03,17,03,05,0.10
2010,03,17,03,06,0.00
2010,03,17,03,07,0.70
2010,03,17,03,08,0.10
2010,03,17,03,09,0.00
2010,03,17,03,10,0.00
2010,03,17,03,11,0.00
2010,03,17,03,12,2.80
2010,03,17,03,13,1.40
2010,03,17,03,14,1.40
2010,03,17,03,15,0.80
2010,03,17,03,16,0.60
2010,03,17,03,17,2.10
2010,03,17,03,18,1.30
2010,03,17,03,19,1.00
2010,03,17,03,20,1.50
2010,03,17,03,21,1.20
2010,03,17,03,22,0.20
2010,03,17,03,23,1.70
2010,03,17,03,24,3.40
2010,03,17,03,25,3.20
2010,03,17,03,26,4.30
2010,03,17,03,27,7.60
2010,03,17,03,28,5.60
2010,03,17,03,29,3.80
2010,03,17,03,30,6.00
2010,03,17,03,31,2.50
2010,03,17,03,32,6.10
2010,03,17,03,33,6.10
2010,03,17,03,34,5.30
2010,03,17,03,35,5.10
2010,03,17,03,36,5.20
2010,03,17,03,37,4.60
2010,03,17,03,38,6.90
2010,03,17,03,39,7.90
2010,03,17,03,40,5.00
2010,03,17,03,41,8.60
2010,03,17,03,42,6.40
2010,03,17,03,43,1.80
2010,03,17,03,44,5.10
2010,03,17,03,45,5.30
2010,03,17,03,46,9.30
2010,03,17,03,47,9.00
2010,03,17,03,48,5.60
2010,03,17,03,49,2.50
2010,03,17,03,50,0.00
2010,03,17,03,51,0.00
2010,03,17,03,52,0.00
2010,03,17,03,53,4.20
2010,03,17,03,54,0.80
2010,03,17,03,55,1.40
2010,03,17,03,56,2.50
2010,03,17,03,57,1.20
2010,03,17,03,58,1.90
2010,03,17,03,59,1.20
2010,03,17,04,00,0.60
2010,03,17,04,01,0.40
2010,03,17,04,02,0.00
2010,03,17,04,03,0.90
2010,03,17,04,04,0.80
2010,03,17,04,05,2.10
2010,03,17,04,06,0.00
2010,03,17,04,07,0.40
2010,03,17,04,08,0.90
2010,03,17,04,09,0.00
2010,03,17,04,10,0.00
2010,03,17,04,11,1.00
2010,03,17,04,12,0.30
2010,03,17,04,13,0.00
2010,03,17,04,14,1.30
2010,03,17,04,15,3.80
2010,03,17,04,16,5.40
2010,03,17,04,17,3.10
2010,03,17,04,18,3.90
2010,03,17,04,19,6.50
2010,03,17,04,20,6.50
2010,03,17,04,21,5.20
2010,03,17,04,22,2.60
2010,03,17,04,23,2.10
2010,03,17,04,24,9.30
2010,03,17,04,25,8.50
2010,03,17,04,26,8.30
2010,03,17,04,27,9.70
2010,03,17,04,28,8.90
2010,03,17,04,29,3.60
2010,03,17,04,30,8.80
2010,03,17,04,31,5.90
2010,03,17,04,32,3.80
2010,03,17,04,33,7.00
2010,03,17,04,34,6.10
2010,03,17,04,35,10.70
2010,03,17,04,36,6.90
2010,03,17,04,37,1.20
2010,03,17,04,38,4.70
2010,03,17,04,39,8.40
2010,03,17,04,40,6.00
2010,03,17,04,41,4.50
2010,03,17,04,42,10.40
2010,03,17,04,43,14.20
2010,03,17,04,44,10.00
2010,03,17,04,45,3.80
2010,03,17,04,46,5.60
2010,03,17,04,47,5.60
2010,03,17,04,48,5.00
2010,03,17,04,49,3.30
2010,03,17,04,50,4.80
2010,03,17,04,51,6.40
2010,03,17,04,52,15.20
2010,03,17,04,53,7.90
2010,03,17,04,54,6.80
2010,03,17,04,55,11.40
2010,03,17,04,56,11.10
2010,03,17,04,57,8.50
2010,03,17,04,58,10.60
2010,03,17,04,59,6.50
2010,03,17,05,00,6.90
2010,03,17,05,01,8.50
2010,03,17,05,02,6.30
2010,03,17,05,03,3.00
2010,03,17,05,04,1.30
2010,03,17,05,05,3.60
2010,03,17,05,06,3.30
2010,03,17,05,07,8.10
2010,03,17,05,08,10.90
2010,03,17,05,09,6.40
2010,03,17,05,10,5.90
2010,03,17,05,11,3.50
2010,03,17,05,12,4.20
2010,03,17,05,13,3.80
2010,03,17,05,14,6.80
2010,03,17,05,15,7.10
2010,03,17,05,16,6.80
2010,03,17,05,17,8.60
2010,03,17,05,18,9.80
2010,03,17,05,19,11.90
2010,03,17,05,20,9.30
2010,03,17,05,21,11.40
2010,03,17,05,22,12.60
2010,03,17,05,23,27.80
2010,03,17,05,24,17.80
2010,03,17,05,25,11.80
2010,03,17,05,26,4.00
2010,03,17,05,27,1.50
2010,03,17,05,28,2.50
2010,03,17,05,29,1.00
2010,03,17,05,30,6.40
2010,03,17,05,31,4.40
2010,03,17,05,32,3.80
2010,03,17,05,33,3.70
2010,03,17,05,34,3.10
2010,03,17,05,35,5.70
2010,03,17,05,36,9.50
2010,03,17,05,37,5.30
2010,03,17,05,38,2.10
2010,03,17,05,39,5.70
2010,03,17,05,40,12.20
2010,03,17,05,41,7.50
2010,03,17,05,42,6.10
2010,03,17,05,43,7.60
2010,03,17,05,44,7.50
2010,03,17,05,45,5.50
2010,03,17,05,46,9.70
2010,03,17,05,47,4.50
2010,03,17,05,48,7.60
2010,03,17,05,49,6.20
2010,03,17,05,50,5.40
2010,03,17,05,51,7.50
2010,03,17,05,52,6.00
2010,03,17,05,53,6.30
2010,03,17,05,54,3.80
2010,03,17,05,55,14.20
2010,03,17,05,56,10.70
2010,03,17,05,57,8.30
2010,03,17,05,58,3.50
2010,03,17,05,59,8.40
2010,03,17,06,00,7.00
2010,03,17,06,01,6.80
2010,03,17,06,02,6.40
2010,03,17,06,03,17.70
2010,03,17,06,04,2.30
2010,03,17,06,05,6.70
2010,03,17,06,06,6.90
2010,03,17,06,07,6.80
2010,03,17,06,08,5.80
2010,03,17,06,09,4.30
2010,03,17,06,10,3.90
2010,03,17,06,11,3.20
2010,03,17,06,12,4.30
2010,03,17,06,13,2.70
2010,03,17,06,14,3.80
2010,03,17,06,15,2.90
2010,03,17,06,16,4.10
2010,03,17,06,17,2.70
2010,03,17,06,18,5.80
2010,03,17,06,19,9.90
2010,03,17,06,20,6.60
2010,03,17,06,21,7.00
2010,03,17,06,22,9.80
2010,03,17,06,23,12.20
2010,03,17,06,24,10.70
2010,03,17,06,25,14.20
2010,03,17,06,26,13.00
2010,03,17,06,27,10.80
2010,03,17,06,28,7.70
2010,03,17,06,29,8.00
2010,03,17,06,30,8.80
2010,03,17,06,31,14.80
2010,03,17,06,32,8.10
2010,03,17,06,33,2.00
2010,03,17,06,34,4.10
2010,03,17,06,35,2.20
2010,03,17,06,36,4.20
2010,03,17,06,37,7.10
2010,03,17,06,38,2.70
2010,03,17,06,39,4.80
2010,03,17,06,40,4.10
2010,03,17,06,41,3.50
2010,03,17,06,42,6.00
2010,03,17,06,43,4.70
2010,03,17,06,44,5.90
2010,03,17,06,45,4.50
2010,03,17,06,46,6.10
2010,03,17,06,47,4.00
2010,03,17,06,48,4.20
2010,03,17,06,49,4.40
2010,03,17,06,50,4.20
2010,03,17,06,51,5.10
2010,03,17,06,52,3.50
2010,03,17,06,53,4.30
2010,03,17,06,54,5.20
2010,03,17,06,55,5.90
2010,03,17,06,56,4.40
2010,03,17,06,57,10.50
2010,03,17,06,58,5.10
2010,03,17,06,59,2.00
2010,03,17,07,00,6.40
2010,03,17,07,01,2.00
2010,03,17,07,02,2.80
2010,03,17,07,03,2.40
2010,03,17,07,04,5.00
2010,03,17,07,05,4.80
2010,03,17,07,06,4.30
2010,03,17,07,07,7.00
2010,03,17,07,08,2.60
2010,03,17,07,09,0.40
2010,03,17,07,10,3.00
2010,03,17,07,11,4.70
2010,03,17,07,12,1.10
2010,03,17,07,13,0.80
2010,03,17,07,14,2.40
2010,03,17,07,15,6.50
2010,03,17,07,16,0.60
2010,03,17,07,17,4.50
2010,03,17,07,18,4.50
2010,03,17,07,19,7.10
2010,03,17,07,20,7.70
2010,03,17,07,21,10.20
2010,03,17,07,22,7.80
2010,03,17,07,23,3.60
2010,03,17,07,24,4.30
2010,03,17,07,25,5.20
2010,03,17,07,26,3.70
2010,03,17,07,27,3.00
2010,03,17,07,28,7.30
2010,03,17,07,29,2.20
2010,03,17,07,30,4.00
2010,03,17,07,31,0.80
2010,03,17,07,32,0.80
2010,03,17,07,33,1.20
2010,03,17,07,34,4.40
2010,03,17,07,35,5.00
2010,03,17,07,36,8.00
2010,03,17,07,37,4.80
2010,03,17,07,38,10.00
2010,03,17,07,39,9.70
2010,03,17,07,40,6.10
2010,03,17,07,41,3.10
2010,03,17,07,42,2.40
2010,03,17,07,43,0.70
2010,03,17,07,44,3.60
2010,03,17,07,45,0.60
2010,03,17,07,46,5.00
2010,03,17,07,47,1.10
2010,03,17,07,48,3.90
2010,03,17,07,49,1.90
2010,03,17,07,50,0.60
2010,03,17,07,51,3.60
2010,03,17,07,52,5.20
2010,03,17,07,53,0.80
2010,03,17,07,54,5.00
2010,03,17,07,55,0.70
2010,03,17,07,56,2.50
2010,03,17,07,57,7.10
2010,03,17,07,58,7.00
2010,03,17,07,59,7.80
2010,03,17,08,00,5.80
2010,03,17,08,01,4.00
2010,03,17,08,02,5.00
2010,03,17,08,03,6.80
2010,03,17,08,04,5.20
2010,03,17,08,05,4.20
2010,03,17,08,06,5.80
2010,03,17,08,07,1.00
2010,03,17,08,08,3.40
2010,03,17,08,09,1.50
2010,03,17,08,10,5.10
2010,03,17,08,11,1.90
2010,03,17,08,12,2.30
2010,03,17,08,13,0.80
2010,03,17,08,14,2.30
2010,03,17,08,15,0.50
2010,03,17,08,16,5.50
2010,03,17,08,17,5.00
2010,03,17,08,18,4.70
2010,03,17,08,19,5.70
2010,03,17,08,20,3.70
2010,03,17,08,21,4.40
2010,03,17,08,22,4.70
2010,03,17,08,23,3.60
2010,03,17,08,24,5.20
2010,03,17,08,25,4.80
2010,03,17,08,26,5.20
2010,03,17,08,27,2.80
2010,03,17,08,28,1.00
2010,03,17,08,29,0.30
2010,03,17,08,30,0.00
2010,03,17,08,31,0.30
2010,03,17,08,32,0.90
2010,03,17,08,33,3.80
2010,03,17,08,34,5.80
2010,03,17,08,35,4.10
2010,03,17,08,36,6.30
2010,03,17,08,37,10.00
2010,03,17,08,38,4.90
2010,03,17,08,39,8.00
2010,03,17,08,40,9.30
2010,03,17,08,41,8.00
2010,03,17,08,42,6.70
2010,03,17,08,43,4.40
2010,03,17,08,44,0.00
2010,03,17,08,45,1.70
2010,03,17,08,46,7.80
2010,03,17,08,47,6.80
2010,03,17,08,48,7.50
2010,03,17,08,49,4.70
2010,03,17,08,50,5.60
2010,03,17,08,51,0.90
2010,03,17,08,52,5.00
2010,03,17,08,53,3.50
2010,03,17,08,54,8.00
2010,03,17,08,55,5.90
2010,03,17,08,56,12.20
2010,03,17,08,57,5.70
2010,03,17,08,58,6.10
2010,03,17,08,59,6.00
2010,03,17,09,00,6.60
2010,03,17,09,01,10.20
2010,03,17,09,02,10.00
2010,03,17,09,03,4.70
2010,03,17,09,04,9.40
2010,03,17,09,05,7.80
2010,03,17,09,06,8.10
2010,03,17,09,07,8.60
2010,03,17,09,08,10.90
2010,03,17,09,09,4.20
2010,03,17,09,10,10.50
2010,03,17,09,11,6.60
2010,03,17,09,12,3.70
2010,03,17,09,13,9.90
2010,03,17,09,14,6.80
2010,03,17,09,15,2.20
2010,03,17,09,16,5.60
2010,03,17,09,17,6.80
2010,03,17,09,18,7.40
2010,03,17,09,19,11.60
2010,03,17,09,20,5.60
2010,03,17,09,21,0.60
2010,03,17,09,22,2.10
2010,03,17,09,23,3.90
2010,03,17,09,24,2.80
2010,03,17,09,25,1.90
2010,03,17,09,26,0.30
2010,03,17,09,27,1.90
2010,03,17,09,28,2.40
2010,03,17,09,29,0.90
2010,03,17,09,30,2.60
2010,03,17,09,31,0.70
2010,03,17,09,32,1.00
2010,03,17,09,33,2.00
2010,03,17,09,34,2.40
2010,03,17,09,35,3.50
2010,03,17,09,36,3.80
2010,03,17,09,37,2.30
2010,03,17,09,38,1.30
2010,03,17,09,39,2.10
2010,03,17,09,40,0.10
2010,03,17,09,41,2.70
2010,03,17,09,42,1.40
2010,03,17,09,43,5.70
2010,03,17,09,44,4.30
2010,03,17,09,45,1.00
2010,03,17,09,46,3.00
2010,03,17,09,47,0.10
2010,03,17,09,48,0.90
2010,03,17,09,49,1.60
2010,03,17,09,50,1.70
2010,03,17,09,51,0.00
2010,03,17,09,52,1.90
2010,03,17,09,53,3.50
2010,03,17,09,54,5.50
2010,03,17,09,55,3.10
2010,03,17,09,56,1.40
2010,03,17,09,57,2.80
2010,03,17,09,58,6.40
2010,03,17,09,59,6.50
2010,03,17,10,00,4.00
2010,03,17,10,01,3.60
2010,03,17,10,02,7.00
2010,03,17,10,03,8.60
2010,03,17,10,04,8.00
2010,03,17,10,05,5.20
2010,03,17,10,06,5.60
2010,03,17,10,07,7.60
2010,03,17,10,08,7.10
2010,03,17,10,09,10.20
2010,03,17,10,10,14.60
2010,03,17,10,11,6.40
2010,03,17,10,12,8.60
2010,03,17,10,13,9.70
2010,03,17,10,14,4.80
2010,03,17,10,15,3.50
2010,03,17,10,16,2.90
2010,03,17,10,17,2.60
2010,03,17,10,18,7.00
2010,03,17,10,19,9.70
2010,03,17,10,20,8.50
2010,03,17,10,21,2.70
2010,03,17,10,22,7.00
2010,03,17,10,23,4.70
2010,03,17,10,24,3.00
2010,03,17,10,25,2.60
2010,03,17,10,26,3.90
2010,03,17,10,27,2.10
2010,03,17,10,28,4.40
2010,03,17,10,29,1.90
2010,03,17,10,30,9.20
2010,03,17,10,31,5.80
2010,03,17,10,32,5.80
2010,03,17,10,33,6.20
2010,03,17,10,34,4.10
2010,03,17,10,35,5.60
2010,03,17,10,36,4.80
2010,03,17,10,37,3.20
2010,03,17,10,38,9.20
2010,03,17,10,39,2.90
2010,03,17,10,40,1.90
2010,03,17,10,41,4.10
2010,03,17,10,42,8.20
2010,03,17,10,43,10.60
2010,03,17,10,44,3.40
2010,03,17,10,45,0.20
2010,03,17,10,46,4.60
2010,03,17,10,47,6.30
2010,03,17,10,48,5.50
2010,03,17,10,49,4.70
2010,03,17,10,50,4.20
2010,03,17,10,51,10.00
2010,03,17,10,52,1.90
2010,03,17,10,53,3.10
2010,03,17,10,54,4.40
2010,03,17,10,55,7.20
2010,03,17,10,56,8.30
2010,03,17,10,57,4.40
2010,03,17,10,58,2.50
2010,03,17,10,59,3.40
2010,03,17,11,00,0.30
2010,03,17,11,01,2.80
2010,03,17,11,02,2.50
2010,03,17,11,03,3.30
2010,03,17,11,04,2.40
2010,03,17,11,05,5.70
2010,03,17,11,06,5.20
2010,03,17,11,07,5.40
2010,03,17,11,08,5.70
2010,03,17,11,09,3.60
2010,03,17,11,10,7.60
2010,03,17,11,11,6.70
2010,03,17,11,12,2.70
2010,03,17,11,13,1.00
2010,03,17,11,14,5.40
2010,03,17,11,15,8.60
2010,03,17,11,16,6.30
2010,03,17,11,17,7.80
2010,03,17,11,18,7.40
2010,03,17,11,19,7.20
2010,03,17,11,20,11.80
2010,03,17,11,21,8.70
2010,03,17,11,22,13.20
2010,03,17,11,23,9.40
2010,03,17,11,24,10.30
2010,03,17,11,25,7.20
2010,03,17,11,26,7.50
2010,03,17,11,27,6.30
2010,03,17,11,28,7.40
2010,03,17,11,29,10.90
2010,03,17,11,30,10.50
2010,03,17,11,31,11.00
2010,03,17,11,32,6.60
2010,03,17,11,33,5.50
2010,03,17,11,34,11.80
2010,03,17,11,35,4.40
2010,03,17,11,36,6.80
2010,03,17,11,37,3.50
2010,03,17,11,38,4.00
2010,03,17,11,39,9.80
2010,03,17,11,40,10.30
2010,03,17,11,41,4.70
2010,03,17,11,42,7.50
2010,03,17,11,43,6.00
2010,03,17,11,44,6.40
2010,03,17,11,45,7.00
2010,03,17,11,46,3.80
2010,03,17,11,47,9.30
2010,03,17,11,48,6.80
2010,03,17,11,49,5.70
2010,03,17,11,50,5.10
2010,03,17,11,51,5.50
2010,03,17,11,52,3.60
2010,03,17,11,53,2.30
2010,03,17,11,54,7.70
2010,03,17,11,55,10.30
2010,03,17,11,56,3.00
2010,03,17,11,57,6.60
2010,03,17,11,58,7.40
2010,03,17,11,59,9.80
2010,03,17,12,00,9.30
2010,03,17,12,01,11.00
2010,03,17,12,02,6.60
2010,03,17,12,03,8.60
2010,03,17,12,04,8.80
2010,03,17,12,05,8.00
2010,03,17,12,06,5.30
2010,03,17,12,07,1.70
2010,03,17,12,08,5.60
2010,03,17,12,09,3.10
2010,03,17,12,10,4.20
2010,03,17,12,11,6.60
2010,03,17,12,12,5.70
2010,03,17,12,13,5.70
2010,03,17,12,14,3.80
2010,03,17,12,15,7.70
2010,03,17,12,16,9.60
2010,03,17,12,17,10.60
2010,03,17,12,18,6.80
2010,03,17,12,19,3.50
2010,03,17,12,20,3.10
2010,03,17,12,21,7.30
2010,03,17,12,22,8.60
2010,03,17,12,23,6.50
2010,03,17,12,24,4.30
2010,03,17,12,25,2.50
2010,03,17,12,26,7.30
2010,03,17,12,27,6.50
2010,03,17,12,28,10.10
2010,03,17,12,29,8.80
2010,03,17,12,30,5.80
2010,03,17,12,31,6.40
2010,03,17,12,32,2.00
2010,03,17,12,33,9.10
2010,03,17,12,34,9.50
2010,03,17,12,35,7.30
2010,03,17,12,36,8.10
2010,03,17,12,37,7.00
2010,03,17,12,38,7.40
2010,03,17,12,39,8.70
2010,03,17,12,40,6.70
2010,03,17,12,41,8.10
2010,03,17,12,42,9.30
2010,03,17,12,43,6.80
2010,03,17,12,44,7.50
2010,03,17,12,45,6.90
2010,03,17,12,46,5.30
2010,03,17,12,47,9.10
2010,03,17,12,48,5.60
2010,03,17,12,49,8.30
2010,03,17,12,50,7.30
2010,03,17,12,51,5.00
2010,03,17,12,52,4.30
2010,03,17,12,53,7.00
2010,03,17,12,54,6.70
2010,03,17,12,55,8.10
2010,03,17,12,56,7.00
2010,03,17,12,57,8.90
2010,03,17,12,58,8.50
2010,03,17,12,59,7.50
2010,03,17,13,00,9.70
2010,03,17,13,01,8.00
2010,03,17,13,02,10.30
2010,03,17,13,03,10.40
2010,03,17,13,04,10.60
2010,03,17,13,05,4.50
2010,03,17,13,06,5.90
2010,03,17,13,07,5.70
2010,03,17,13,08,3.00
2010,03,17,13,09,9.10
2010,03,17,13,10,9.00
2010,03,17,13,11,8.90
2010,03,17,13,12,4.10
2010,03,17,13,13,3.70
2010,03,17,13,14,5.60
2010,03,17,13,15,4.60
2010,03,17,13,16,4.90
2010,03,17,13,17,1.90
2010,03,17,13,18,4.40
2010,03,17,13,19,2.70
2010,03,17,13,20,2.40
2010,03,17,13,21,2.60
2010,03,17,13,22,1.00
2010,03,17,13,23,2.20
2010,03,17,13,24,1.70
2010,03,17,13,25,5.80
2010,03,17,13,26,3.70
2010,03,17,13,27,1.40
2010,03,17,13,28,1.40
2010,03,17,13,29,6.90
2010,03,17,13,30,4.50
2010,03,17,13,31,3.10
2010,03,17,13,32,1.60
2010,03,17,13,33,1.40
2010,03,17,13,34,3.20
2010,03,17,13,35,6.50
2010,03,17,13,36,6.30
2010,03,17,13,37,6.00
2010,03,17,13,38,7.80
2010,03,17,13,39,9.40
2010,03,17,13,40,4.50
2010,03,17,13,41,4.70
2010,03,17,13,42,5.80
2010,03,17,13,43,3.00
2010,03,17,13,44,6.60
2010,03,17,13,45,5.10
2010,03,17,13,46,5.00
2010,03,17,13,47,4.90
2010,03,17,13,48,1.00
2010,03,17,13,49,1.20
2010,03,17,13,50,5.10
2010,03,17,13,51,1.00
2010,03,17,13,52,1.90
2010,03,17,13,53,5.60
2010,03,17,13,54,2.30
2010,03,17,13,55,3.30
2010,03,17,13,56,4.90
2010,03,17,13,57,2.90
2010,03,17,13,58,3.20
2010,03,17,13,59,4.50
2010,03,17,14,00,3.30
2010,03,17,14,01,3.10
2010,03,17,14,02,1.30
2010,03,17,14,03,2.10
2010,03,17,14,04,4.30
2010,03,17,14,05,7.20
2010,03,17,14,06,5.20
2010,03,17,14,07,6.20
2010,03,17,14,08,3.30
2010,03,17,14,09,5.40
2010,03,17,14,10,2.00
2010,03,17,14,11,6.00
2010,03,17,14,12,6.00
2010,03,17,14,13,4.50
2010,03,17,14,14,7.50
2010,03,17,14,15,4.60
2010,03,17,14,16,7.60
2010,03,17,14,17,5.60
2010,03,17,14,18,1.90
2010,03,17,14,19,1.70
2010,03,17,14,20,3.70
2010,03,17,14,21,7.50
2010,03,17,14,22,6.40
2010,03,17,14,23,5.40
2010,03,17,14,24,2.50
2010,03,17,14,25,3.60
2010,03,17,14,26,2.10
2010,03,17,14,27,0.60
2010,03,17,14,28,5.20
2010,03,17,14,29,7.00
2010,03,17,14,30,5.30
2010,03,17,14,31,2.00
2010,03,17,14,32,6.80
2010,03,17,14,33,4.80
2010,03,17,14,34,2.30
2010,03,17,14,35,3.60
2010,03,17,14,36,5.70
2010,03,17,14,37,6.30
2010,03,17,14,38,9.90
2010,03,17,14,39,6.80
2010,03,17,14,40,5.90
2010,03,17,14,41,4.70
2010,03,17,14,42,1.60
2010,03,17,14,43,0.60
2010,03,17,14,44,5.60
2010,03,17,14,45,3.20
2010,03,17,14,46,3.10
2010,03,17,14,47,6.90
2010,03,17,14,48,4.00
2010,03,17,14,49,2.70
2010,03,17,14,50,2.20
2010,03,17,14,51,5.40
2010,03,17,14,52,7.60
2010,03,17,14,53,8.00
2010,03,17,14,54,4.20
2010,03,17,14,55,4.80
2010,03,17,14,56,5.90
2010,03,17,14,57,4.90
2010,03,17,14,58,3.90
2010,03,17,14,59,3.20
2010,03,17,15,00,4.00
2010,03,17,15,01,3.20
2010,03,17,15,02,7.70
2010,03,17,15,03,2.20
2010,03,17,15,04,5.50
2010,03,17,15,05,4.40
2010,03,17,15,06,1.10
2010,03,17,15,07,3.10
2010,03,17,15,08,3.10
2010,03,17,15,09,3.00
2010,03,17,15,10,1.80
2010,03,17,15,11,3.20
2010,03,17,15,12,2.90
2010,03,17,15,13,2.10
2010,03,17,15,14,7.10
2010,03,17,15,15,4.80
2010,03,17,15,16,7.20
2010,03,17,15,17,3.70
2010,03,17,15,18,5.20
2010,03,17,15,19,7.20
2010,03,17,15,20,6.00
2010,03,17,15,21,5.40
2010,03,17,15,22,2.20
2010,03,17,15,23,5.40
2010,03,17,15,24,4.90
2010,03,17,15,25,9.00
2010,03,17,15,26,3.60
2010,03,17,15,27,5.80
2010,03,17,15,28,7.80
2010,03,17,15,29,6.30
2010,03,17,15,30,7.00
2010,03,17,15,31,6.10
2010,03,17,15,32,4.50
2010,03,17,15,33,4.70
2010,03,17,15,34,3.00
2010,03,17,15,35,3.90
2010,03,17,15,36,4.60
2010,03,17,15,37,5.20
2010,03,17,15,38,1.60
2010,03,17,15,39,3.10
2010,03,17,15,40,4.40
2010,03,17,15,41,4.10
2010,03,17,15,42,6.10
2010,03,17,15,43,4.80
2010,03,17,15,44,6.00
2010,03,17,15,45,2.50
2010,03,17,15,46,1.60
2010,03,17,15,47,0.10
2010,03,17,15,48,2.20
2010,03,17,15,49,2.10
2010,03,17,15,50,7.10
2010,03,17,15,51,5.30
2010,03,17,15,52,5.50
2010,03,17,15,53,4.40
2010,03,17,15,54,5.50
2010,03,17,15,55,4.10
2010,03,17,15,56,2.20
2010,03,17,15,57,6.40
2010,03,17,15,58,3.10
2010,03,17,15,59,4.30
2010,03,17,16,00,5.90
2010,03,17,16,01,3.60
2010,03,17,16,02,2.80
2010,03,17,16,03,0.80
2010,03,17,16,04,6.40
2010,03,17,16,05,5.70
2010,03,17,16,06,5.10
2010,03,17,16,07,3.40
2010,03,17,16,08,4.80
2010,03,17,16,09,4.40
2010,03,17,16,10,4.10
2010,03,17,16,11,6.00
2010,03,17,16,12,4.00
2010,03,17,16,13,4.40
2010,03,17,16,14,5.20
2010,03,17,16,15,3.30
2010,03,17,16,16,1.50
2010,03,17,16,17,2.60
2010,03,17,16,18,1.90
2010,03,17,16,19,1.20
2010,03,17,16,20,0.10
2010,03,17,16,21,0.80
2010,03,17,16,22,0.00
2010,03,17,16,23,2.40
2010,03,17,16,24,0.70
2010,03,17,16,25,1.00
2010,03,17,16,26,1.10
2010,03,17,16,27,1.50
2010,03,17,16,28,2.00
2010,03,17,16,29,1.40
2010,03,17,16,30,3.40
2010,03,17,16,31,1.40
2010,03,17,16,32,2.20
2010,03,17,16,33,2.60
2010,03,17,16,34,1.50
2010,03,17,16,35,2.30
2010,03,17,16,36,3.90
2010,03,17,16,37,4.00
2010,03,17,16,38,2.10
2010,03,17,16,39,1.40
2010,03,17,16,40,0.80
2010,03,17,16,41,0.90
2010,03,17,16,42,3.10
2010,03,17,16,43,1.40
2010,03,17,16,44,1.60
2010,03,17,16,45,3.30
2010,03,17,16,46,0.40
2010,03,17,16,47,1.00
2010,03,17,16,48,1.10
2010,03,17,16,49,1.60
2010,03,17,16,50,0.90
2010,03,17,16,51,0.40
2010,03,17,16,52,0.50
2010,03,17,16,53,1.00
2010,03,17,16,54,0.60
2010,03,17,16,55,4.00
2010,03,17,16,56,2.10
2010,03,17,16,57,2.40
2010,03,17,16,58,0.60
2010,03,17,16,59,1.00
2010,03,17,17,00,0.70
2010,03,17,17,01,1.40
2010,03,17,17,02,1.70
2010,03,17,17,03,0.60
2010,03,17,17,04,1.20
2010,03,17,17,05,0.00
2010,03,17,17,06,2.10
2010,03,17,17,07,2.50
2010,03,17,17,08,2.40
2010,03,17,17,09,1.20
2010,03,17,17,10,3.90
2010,03,17,17,11,2.60
2010,03,17,17,12,2.90
2010,03,17,17,13,3.60
2010,03,17,17,14,1.90
2010,03,17,17,15,3.10
2010,03,17,17,16,2.60
2010,03,17,17,17,4.00
2010,03,17,17,18,0.00
2010,03,17,17,19,0.30
2010,03,17,17,20,1.30
2010,03,17,17,21,2.00
2010,03,17,17,22,0.90
2010,03,17,17,23,3.00
2010,03,17,17,24,2.40
2010,03,17,17,25,1.00
2010,03,17,17,26,0.90
2010,03,17,17,27,0.90
2010,03,17,17,28,1.40
2010,03,17,17,29,1.30
2010,03,17,17,30,1.60
2010,03,17,17,31,0.60
2010,03,17,17,32,0.10
2010,03,17,17,33,1.20
2010,03,17,17,34,0.30
2010,03,17,17,35,0.10
2010,03,17,17,36,0.00
2010,03,17,17,37,1.50
2010,03,17,17,38,0.20
2010,03,17,17,39,0.00
2010,03,17,17,40,0.00
2010,03,17,17,41,0.00
2010,03,17,17,42,0.00
2010,03,17,17,43,0.00
2010,03,17,17,44,0.00
2010,03,17,17,45,0.00
2010,03,17,17,46,0.00
2010,03,17,17,47,0.00
2010,03,17,17,48,0.00
2010,03,17,17,49,0.00
2010,03,17,17,50,0.00
2010,03,17,17,51,0.00
2010,03,17,17,52,0.00
2010,03,17,17,53,0.00
2010,03,17,17,54,0.00
2010,03,17,17,55,0.00
2010,03,17,17,56,0.00
2010,03,17,17,57,0.00
2010,03,17,17,58,0.00
2010,03,17,17,59,0.00
2010,03,17,18,00,0.00
2010,03,17,18,01,0.00
2010,03,17,18,02,0.00
2010,03,17,18,03,0.00
2010,03,17,18,04,0.00
2010,03,17,18,05,0.00
2010,03,17,18,06,0.00